Le nostre stazioni meteo in Italia

Pubblicità
Il mio iltempo24.it
Pescara, Italia (16230): Temperatura & dewpoint: 07.12.2018 22:00:00 - 13.12.2018 22:00:00 (CET)Pescara, Italia (16230): velocità del vento: 07.12.2018 22:00:00 - 13.12.2018 22:00:00 (CET)Pescara, Italia (16230): direzione del vento: 07.12.2018 22:00:00 - 13.12.2018 22:00:00 (CET)Pescara, Italia (16230): reduced air pressure: 07.12.2018 22:00:00 - 13.12.2018 22:00:00 (CET)Pescara, Italia (16230): visibility: 07.12.2018 22:00:00 - 13.12.2018 22:00:00 (CET)Pescara, Italia (16230): precipitazioni: 07.12.2018 22:00:00 - 13.12.2018 22:00:00 (CET)
Data & Tempo tt [°C] td [°C] ff [km/h] ff [kn] dd ppp [hPa] vv [km] rr [mm]
13.12.2018 22:00:00 5,9 3,9 4 2 SO 1012,0 25 0,0
13.12.2018 21:00:00 6,0 4,0 4 2 SO - 10 -
13.12.2018 20:00:00 6,0 4,0 5 3 SO - 10 -
13.12.2018 19:00:00 6,5 3,5 5 3 SO 1012,0 20 -
13.12.2018 18:00:00 7,0 4,0 5 3 SO - 10 -
13.12.2018 17:00:00 8,0 3,0 5 3 SO - 10 -
13.12.2018 16:00:00 8,5 2,5 5 3 OSO 1012,1 25 0,0
13.12.2018 15:00:00 9,0 2,0 2 1 - - 10 -
13.12.2018 14:00:00 9,0 2,0 2 1 - - 10 -
13.12.2018 13:00:00 8,5 2,0 4 2 N 1012,4 25 -
13.12.2018 12:00:00 8,0 3,0 4 2 - - 10 -
13.12.2018 11:00:00 7,0 3,0 8 4 SO - 10 -
13.12.2018 10:00:00 6,4 3,1 8 4 SSO 1014,2 10 0,0
13.12.2018 09:00:00 5,0 3,0 5 3 SO - 10 -
13.12.2018 08:00:00 5,0 2,0 5 3 SSO - 10 -
13.12.2018 07:00:00 4,3 2,0 4 2 SO 1014,7 10 -
13.12.2018 06:00:00 4,0 2,0 5 3 O - 10 -
13.12.2018 05:00:00 5,0 1,0 11 6 - - 10 -
13.12.2018 04:00:00 4,2 0,6 8 4 OSO 1016,7 10 0,0
13.12.2018 03:00:00 3,0 1,0 8 4 SSO - 10 -
13.12.2018 02:00:00 3,0 0,0 8 4 SO - 10 -
13.12.2018 01:00:00 2,6 0,0 9 5 SSO 1018,1 10 -
13.12.2018 00:00:00 2,0 0,0 8 4 SO - 10 -
12.12.2018 23:00:00 2,0 -1,0 5 3 OSO - 10 -
12.12.2018 22:00:00 1,8 -1,0 5 3 SO 1018,9 20 0,0
12.12.2018 21:00:00 3,0 -1,0 9 5 SO - 10 -
12.12.2018 20:00:00 2,0 -1,0 9 5 SO - 10 -
12.12.2018 19:00:00 2,1 -1,0 9 5 SSO 1019,6 15 -
12.12.2018 18:00:00 4,0 -1,0 5 3 OSO - 10 -
12.12.2018 17:00:00 8,0 -1,0 2 1 - - 10 -
12.12.2018 16:00:00 9,0 -1,8 9 5 NE 1019,3 25 0,0
12.12.2018 15:00:00 11,0 -3,0 13 7 NNE - 10 -
12.12.2018 14:00:00 12,0 -3,0 8 4 NE - 10 -
12.12.2018 13:00:00 11,5 -1,5 4 2 - 1019,6 30 -
12.12.2018 12:00:00 10,0 1,0 11 6 SO - 10 -
12.12.2018 11:00:00 8,0 1,0 9 5 SO - 10 -
12.12.2018 10:00:00 5,6 0,9 13 7 SO 1021,2 30 0,0
12.12.2018 09:00:00 1,0 0,0 8 4 SSO - 10 -
12.12.2018 08:00:00 -2,0 -3,0 9 5 SO - 10 -
12.12.2018 07:00:00 -0,1 -1,7 9 5 OSO 1020,5 20 -
12.12.2018 06:00:00 -1,0 -3,0 5 3 SO - 10 -
12.12.2018 05:00:00 0,0 -1,0 11 6 SSO - 10 -
12.12.2018 04:00:00 -0,9 -1,7 11 6 SSO 1020,2 20 0,0
12.12.2018 03:00:00 -1,0 -1,0 8 4 SO - 10 -
12.12.2018 02:00:00 0,0 0,0 8 4 S - 10 -
12.12.2018 01:00:00 -0,1 -0,7 9 5 SSO 1020,2 20 -
12.12.2018 00:00:00 0,0 -1,0 5 3 SSO - 10 -
11.12.2018 23:00:00 1,0 1,0 9 5 SO - 10 -
11.12.2018 22:00:00 1,9 1,1 9 5 SO 1020,0 20 0,0
11.12.2018 21:00:00 3,0 2,0 11 6 SO - 10 -
11.12.2018 20:00:00 4,0 3,0 9 5 SO - 10 -
11.12.2018 19:00:00 4,1 3,3 9 5 SO 1019,9 15 -
11.12.2018 18:00:00 5,0 3,0 9 5 SSO - 10 -
11.12.2018 17:00:00 6,0 4,0 4 2 - - 10 -
11.12.2018 16:00:00 8,6 3,9 5 3 O 1018,6 25 0,0
11.12.2018 15:00:00 11,0 3,0 4 2 - - 10 -
11.12.2018 14:00:00 10,0 5,0 18 10 E - 10 -
11.12.2018 13:00:00 10,0 3,8 11 6 E 1018,5 25 -
11.12.2018 12:00:00 10,0 5,0 16 9 E - 10 -
11.12.2018 11:00:00 9,0 3,0 5 3 SSO - 10 -
11.12.2018 10:00:00 7,2 2,8 9 5 SO 1018,8 20 0,0
11.12.2018 09:00:00 4,0 2,0 11 6 SO - 10 -
11.12.2018 08:00:00 2,0 1,0 8 4 SSO - 10 -
11.12.2018 07:00:00 1,2 0,0 5 3 N 1018,0 20 -
11.12.2018 06:00:00 2,0 1,0 9 5 SSO - 10 -
11.12.2018 05:00:00 4,0 3,0 9 5 SSO - 10 -
11.12.2018 04:00:00 4,4 2,5 4 2 - 1017,2 20 0,0
11.12.2018 03:00:00 6,0 4,0 5 3 SO - 10 -
11.12.2018 02:00:00 7,0 4,0 9 5 SO - 10 -
11.12.2018 01:00:00 5,5 4,1 9 5 SSO 1017,3 15 -
11.12.2018 00:00:00 7,0 4,0 15 8 SO - 10 -
10.12.2018 23:00:00 9,0 4,0 13 7 SO - 10 -
10.12.2018 22:00:00 10,0 4,3 9 5 ONO 1017,5 20 0,0
10.12.2018 21:00:00 11,0 4,0 18 10 N - 10 -
10.12.2018 20:00:00 10,0 5,0 16 9 NNE - 10 -
10.12.2018 19:00:00 10,7 4,0 9 5 NNE 1016,6 10 -
10.12.2018 18:00:00 11,0 5,0 16 9 NE - 10 -
10.12.2018 17:00:00 12,0 4,0 8 4 O - 10 -
10.12.2018 16:00:00 12,5 4,1 9 5 ONO 1014,4 10 0,0
10.12.2018 15:00:00 13,0 5,0 15 8 NNO - 10 -
10.12.2018 14:00:00 14,0 5,0 15 8 N - 10 -
10.12.2018 13:00:00 14,4 5,5 18 10 NNE 1013,8 30 -
10.12.2018 12:00:00 15,0 4,0 16 9 ENE - 10 -
10.12.2018 11:00:00 15,0 4,0 2 1 - - 10 -
10.12.2018 10:00:00 12,5 4,3 9 5 OSO 1013,0 30 0,0
10.12.2018 09:00:00 9,0 4,0 9 5 SO - 10 -
10.12.2018 08:00:00 5,0 2,0 11 6 SSO - 10 -
10.12.2018 07:00:00 4,1 1,6 8 4 SO 1011,5 30 -
10.12.2018 06:00:00 3,0 1,0 5 3 S - 10 -
10.12.2018 05:00:00 6,0 3,0 9 5 OSO - 10 -
10.12.2018 04:00:00 3,8 2,8 11 6 SSO 1010,5 25 0,0
10.12.2018 03:00:00 4,0 3,0 5 3 SSO - 10 -
10.12.2018 02:00:00 4,0 3,0 11 6 SSO - 10 -
10.12.2018 01:00:00 5,3 4,0 4 2 OSO 1009,9 25 -
10.12.2018 00:00:00 6,0 4,0 4 2 - - 10 -
09.12.2018 23:00:00 10,0 6,0 4 2 - - 10 -
09.12.2018 22:00:00 10,2 5,7 4 2 NE 1008,7 20 0,0
09.12.2018 21:00:00 12,0 6,0 9 5 SO - 10 -
09.12.2018 20:00:00 10,0 5,0 8 4 OSO - 10 -
09.12.2018 19:00:00 11,0 4,8 9 5 SO 1007,4 20 -
09.12.2018 18:00:00 11,0 6,0 11 6 SO - 10 -
09.12.2018 17:00:00 12,0 6,0 5 3 O - 10 -
09.12.2018 16:00:00 14,3 6,0 4 2 - 1008,1 25 0,0
09.12.2018 15:00:00 15,0 7,0 9 5 NNE - 10 -
09.12.2018 14:00:00 15,0 3,0 18 10 NE - 10 -
09.12.2018 13:00:00 19,9 -0,8 13 7 OSO 1007,2 30 -
09.12.2018 12:00:00 19,0 -1,0 11 6 SO - 10 -
09.12.2018 11:00:00 17,0 0,0 26 14 SO - 10 -
09.12.2018 10:00:00 15,6 0,3 26 14 SO 1009,9 30 0,0
09.12.2018 09:00:00 13,0 -1,0 28 15 SO - 10 -
09.12.2018 08:00:00 10,0 -2,0 21 11 SO - 10 -
09.12.2018 07:00:00 2,5 -1,0 5 3 OSO 1012,4 10 -
09.12.2018 06:00:00 4,0 0,0 11 6 OSO - 10 -
09.12.2018 05:00:00 2,0 0,0 8 4 OSO - 10 -
09.12.2018 04:00:00 1,4 -0,1 5 3 SO 1015,4 15 0,0
09.12.2018 03:00:00 2,0 1,0 8 4 SO - 10 -
09.12.2018 02:00:00 3,0 1,0 8 4 SSO - 10 -
09.12.2018 01:00:00 3,2 1,8 9 5 SSO 1016,9 15 -
09.12.2018 00:00:00 4,0 3,0 9 5 S - 10 -
08.12.2018 23:00:00 5,0 3,0 8 4 SO - 10 -
08.12.2018 22:00:00 6,7 3,9 8 4 SO 1017,0 15 0,0
08.12.2018 21:00:00 11,0 3,0 8 4 ONO - 10 -
08.12.2018 20:00:00 12,0 4,0 13 7 ONO - 10 -
08.12.2018 19:00:00 12,3 3,7 13 7 ONO 1015,9 25 -
08.12.2018 18:00:00 13,0 5,0 13 7 ONO - 10 -
08.12.2018 17:00:00 13,0 5,0 13 7 NO - 10 -
08.12.2018 16:00:00 13,8 5,5 13 7 ONO 1013,1 10 0,0
08.12.2018 15:00:00 15,0 7,0 13 7 NO - 10 -
08.12.2018 14:00:00 13,0 7,0 9 5 NNO - 10 -
08.12.2018 13:00:00 13,0 6,9 13 7 NNO 1011,2 15 -
08.12.2018 12:00:00 15,0 9,0 18 10 N - 10 -
08.12.2018 11:00:00 17,0 10,0 4 2 - - 10 -
08.12.2018 10:00:00 16,6 10,3 8 4 O 1009,7 20 0,0
08.12.2018 09:00:00 13,0 9,0 8 4 - - 10 -
08.12.2018 08:00:00 11,0 8,0 5 3 - - 10 -
08.12.2018 07:00:00 11,8 7,5 5 3 NNE 1009,2 18 -
08.12.2018 06:00:00 16,0 6,0 21 11 O - 10 -
08.12.2018 05:00:00 13,0 8,0 15 8 S - 10 -
08.12.2018 04:00:00 6,3 5,9 5 3 N 1010,9 4,1 0,0
08.12.2018 03:00:00 6,0 6,0 8 4 N - 3,6 -
08.12.2018 02:00:00 6,0 5,0 4 2 - - 4,5 -
08.12.2018 01:00:00 5,8 5,3 4 2 N 1014,1 30 -
08.12.2018 00:00:00 6,0 6,0 4 2 - - 3,8 -
07.12.2018 23:00:00 6,0 6,0 5 3 O - 7 -
07.12.2018 22:00:00 5,7 5,2 8 4 S 1017,3 9 0,0

tt = Temperatura
td = dewpoint
ff = velocità del vento
dd = direzione del vento
ppp = reduced air pressure
vv = visibility
rr = precipitazioni

Stazioni seguenti

WeatherPro
AMSI
MeteoEarth